Flag for India Weather past 2 weeks in Lucknow, Uttar Pradesh, India

Now
91 °F

Broken clouds.


Feels Like: 118 °F
Forecast: 80 / 99 °F
Wind: No wind

Location: Lucknow / Amausi

Current Time: Aug 29, 2015 at 6:45:08 PM

Latest Report: Aug 29, 2015 at 6:00 PM


Visibility: 3 mi

Pressure: 29.50 "Hg

Humidity: 80%

Dew point: 84 °F

Location of LucknowLocation

Historic Weather in Lucknow — Graph

°F

Lucknow temperature yesterday

Maximum temperature yesterday: 93 °F (at 1:30 PM)
Minimum temperature yesterday: 82 °F (at 1:00 AM)
Average temperature yesterday: 88 °F

Past Weeks' High & Low Weather Summary

 TemperatureHumidityPressure
High99 °F (Aug 26, 1:00 PM)100% (Aug 16, 6:30 AM)29.68 "Hg (Aug 16, 6:30 AM)
Low75 °F (Aug 22, 8:30 AM)50% (Aug 25, 2:30 PM)29.50 "Hg (Aug 22, 5:00 PM)
Average87 °F82%29.59 "Hg
* Reported Aug 14 4:30 PM — Aug 29 5:00 PM, Lucknow, Weather by CustomWeather, © 2015

Note: Actual official high and low records may vary slightly from our data, if they occured in-between our weather recording intervals... More about our weather records

Advertising

Lucknow weather history for previous 24 hours

 ConditionsComfort  
Time TempWeatherWind HumidityBarometerVisibility
5:00 PM
Sat, Aug 29
95 °FBroken clouds.3 mph71%29.50 "Hg3 mi
4:30 PM95 °FBroken clouds.No wind71%29.50 "Hg3 mi
3:30 PM95 °FBroken clouds.2 mph71%29.53 "Hg3 mi
3:00 PM95 °FBroken clouds.3 mph67%29.53 "Hg3 mi
2:30 PM95 °FBroken clouds.3 mph67%29.56 "Hg3 mi
1:30 PM91 °FBroken clouds.6 mph71%29.59 "Hg3 mi
11:30 AM95 °FBroken clouds.No wind67%29.62 "Hg3 mi
11:00 AM95 °FScattered clouds.1 mph71%29.62 "Hg3 mi
10:30 AM93 °FScattered clouds.No wind71%29.65 "Hg3 mi
10:00 AM91 °FScattered clouds.2 mph75%29.65 "Hg3 mi
9:30 AM91 °FScattered clouds.1 mph80%29.65 "Hg3 mi
9:00 AM90 °FScattered clouds.1 mph79%29.65 "Hg3 mi
8:30 AM88 °FScattered clouds.1 mph79%29.62 "Hg2 mi
8:00 AM86 °FScattered clouds.No wind89%29.62 "Hg2 mi
7:30 AM84 °FScattered clouds.No wind94%29.62 "Hg2 mi
7:00 AM84 °FScattered clouds.No wind94%29.59 "Hg2 mi
6:30 AM82 °FScattered clouds.No wind94%29.59 "Hg2 mi
6:00 AM82 °FPassing clouds.No wind94%29.59 "Hg2 mi
5:30 AM82 °FPassing clouds.No wind94%29.59 "Hg2 mi
5:00 AM82 °FPassing clouds.No wind94%29.56 "Hg2 mi
4:00 AM82 °FPassing clouds.No wind94%29.56 "Hg2 mi
3:00 AM82 °FPassing clouds.No wind94%29.56 "Hg2 mi
2:00 AM84 °FPassing clouds.No wind94%29.59 "Hg2 mi
1:00 AM84 °FPassing clouds.No wind94%29.62 "Hg2 mi
12:00 AM84 °FPassing clouds.No wind94%29.62 "Hg2 mi
10:00 PM
Fri, Aug 28
86 °FPassing clouds.No wind89%29.62 "Hg2 mi
9:00 PM86 °FPassing clouds.No wind89%29.59 "Hg2 mi
8:30 PM86 °FPassing clouds.No wind89%29.59 "Hg2 mi
8:00 PM88 °FPartly cloudy.No wind84%29.59 "Hg3 mi
7:30 PM88 °FPartly cloudy.No wind84%29.59 "Hg3 mi
7:00 PM88 °FBroken clouds.No wind84%29.59 "Hg3 mi
6:30 PM90 °FBroken clouds.No wind79%29.56 "Hg3 mi
6:00 PM90 °FBroken clouds.No wind79%29.56 "Hg3 mi
Weather by CustomWeather, © 2015

See weather overviewHow to use our weather pages